ImprimablePdf
Antwerp, 25/04/2010, BEL - DVV Antwerp Marathon & 10 Miles
Liste des rapports > 10 Miles - Classement + Video
Recherche: Page: [1] 2 3 4 5 6 7 8
1542 Entrées
 
Les réclamations ne sont plus acceptées, les résultats sont considérés comme définitifs.
RangNrNomAgeIOCTempsTkmMoy.ScrLocalité
1.9FLAMBRECHTS Nathalie32BEL1:03:503:58 15.13153HOBOKEN (ANTWERPEN)
2.12081FDILLEN Kim27NLD1:04:154:00 15.03171WAALRE
3.261FTHYS Evert24BEL1:05:004:03 14.86200BRECHT
4.271FBELLEKENS Bianca31BEL1:07:104:11 14.38317WESTMALLE
5.7975FVERAMME Heidi32BEL1:09:054:18 13.98451ZWIJNDRECHT
6.19990FDEMUYNCK Annelies28BEL1:09:164:19 13.94473BREDENE
7.732FRENCKENS An29BEL1:09:214:19 13.93480MEERDONK
8.3355FFRANCOIS Isabelle30BEL1:09:254:19 13.91486LEUVEN
9.833FVAN IMSCHOOT Marijke30BEL1:09:434:20 13.85504ANTWERPEN BERCHEM
10.19090FDE CAUWER Kathleen29BEL1:10:044:22 13.78544STEENDORP
11.12164FLEIJTENS Jose19BEL1:10:044:22 13.78546ANTWERPEN 1
12.13257FTUYLS Tine29BEL1:10:474:24 13.65607ANTWERPEN 6
13.270FVERSTAPPEN Greet28BEL1:10:474:24 13.64609OOSTMALLE
14.11292FBOMANS Lore21BEL1:10:584:25 13.61627HOUTHALEN
15.864FVANSPAUWEN Katrien29BEL1:11:424:28 13.47705ANTWERPEN
16.9111FEECKHOUT Delphine32BEL1:12:244:30 13.34777SCHOTEN
17.4116FBONAMI Deborah25BEL1:12:394:31 13.29804BRUXELLES 5
18.8532FVAN LOOK Els25BEL1:12:594:33 13.23853MERKSEM (ANTWERPEN)
19.782FGUERFAL Mouna29BEL1:13:084:33 13.21875GENTBRUGGE
20.2080FANTHIERENS Lynn22BEL1:13:084:33 13.21876MORTSEL
21.865FAERNOUTS An24BEL1:13:174:34 13.18905MERKSEM (ANTWERPEN)
22.16986FBEELS Anne29BEL1:13:354:35 13.13946
23.16829FVANDERBIESEN Francy28BEL1:13:384:35 13.12954ZOERSEL
24.1145FFOCQUET Julie30BEL1:14:054:37 13.041031MAASEIK
25.19377FMUYS Lore14BEL1:14:114:37 13.021048DUFFEL
26.7711FBREEDSTRAET Els31BEL1:14:334:38 12.951104LEUVEN
27.14184FSALLAERTS Saartje23BEL1:14:534:40 12.901154HOUTHALEN
28.11098FVERBEECK Stefanie25BEL1:14:534:40 12.901158HERENTALS
29.198FVAN TRIER Ellen27BEL1:14:574:40 12.891171NIEUWPOORT
30.2235FSACRE Laetitia30BEL1:15:024:40 12.871181OPWIJK
31.3348FVAN BRUWAENE Lore26BEL1:15:104:41 12.851198VLEZENBEEK
32.17131FDE RIDDER Stijn19BEL1:15:124:41 12.841204
33.17092FCASTLEDINE Catherine29BEL1:15:354:42 12.781266
34.16456FGRUODYTE Aiste31BEL1:16:044:44 12.701352
35.2216FHUYGHE Melanie25BEL1:16:164:45 12.661394LEUVEN
36.9114FBUYTAERT Magali25BEL1:16:304:46 12.631454BERCHEM (ANTWERPEN)
37.13238FRENEMA Louise28BEL1:16:314:46 12.621461ANTWERPEN 6
38.965FVAN DE VOORDE Lies20BEL1:16:454:47 12.581511RUMST
39.735FBOSMANS Anneleen22BEL1:16:544:47 12.561550KALMTHOUT
40.16494FDE WIT Leen27BEL1:17:094:48 12.521593WILRIJK
41.6247FKROMANE Lolita28NLD1:17:134:48 12.511602VLISSINGEN
42.5254FVAN DEN BRANDEN Evelien17BEL1:17:144:48 12.501607HAMME (O.-VL.)
43.18125FBAELUS Tine27BEL1:17:224:49 12.481629DEURNE
44.18343FSENTEN Cindy29BEL1:17:484:51 12.411729HOBOKEN
45.4905FBURKE Tiffany33BEL1:18:064:52 12.371792ANTWERPEN
46.19403FPEETERS Lien19BEL1:18:184:52 12.331836DUFFEL
47.10092FVERTENTEN Soetkin22BEL1:18:204:52 12.331845WAASMUNSTER
48.6318FSCHOCKAERT Stephanie32BEL1:18:214:53 12.331851BONHEIDEN
49.3307FMICHIELS Nathalie23BEL1:18:304:53 12.301890SINAAI-WAAS
50.5029FROYACKERS Lies32BEL1:18:314:53 12.301894HULDENBERG
51.12722FBAUMER Silke19BEL1:18:404:54 12.281926BRASSCHAAT
52.10867FCANT Nele27BEL1:18:424:54 12.271934BEVEREN-WAAS
53.4779FBROSENS Eveline23BEL1:18:524:54 12.251976RIJKEVORSEL
54.17110FVAN GRIEKEN Sarah32BEL1:19:044:55 12.222034
55.9360FBROES Karolien27BEL1:19:124:56 12.192070SCHELLE
56.8482FHOFMANS Evelien27BEL1:19:164:56 12.182091MERKSEM (ANTWERPEN)
57.8130FVERBEKE Amy22BEL1:19:274:57 12.162145HOEILAART
58.4454FCANTILLON Charlotte26BEL1:19:294:57 12.152150ANTWERPEN
59.4135FPEETERS Vanessa34BEL1:19:294:57 12.152151NIEL
60.2598FSIMON Stephanie32BEL1:19:384:57 12.132191RESSAIX
61.495FLOUAGE Lin25BEL1:19:384:57 12.132196ANTWERPEN 1
62.13287FVERCAMMEN Saskia34BEL1:19:444:58 12.112218SINT-NIKLAAS
63.2657FDE PAUW Sofie29BEL1:19:574:59 12.082276HAMME
64.13344FD'AES Cindy25BEL1:20:054:59 12.062312DEURNE (ANTWERPEN)
65.9835FROUSSEL Sophie33BEL1:20:094:59 12.052335KONTICH
66.4336FROMBOUTS Dorien30BEL1:20:295:00 12.002435BRUSSEL
67.16687FGILL Erskine27BEL1:20:345:01 11.992455
68.2516FPENDERS Dieuwertje25BEL1:20:375:01 11.982465ANTWERPEN
69.3117FWOUTERS Ine20BEL1:20:395:01 11.982472MORTSEL
70.281FMATTHYSSEN Anke23BEL1:20:415:01 11.972485BRECHT
71.702FTHEUNS Elke28BEL1:20:545:02 11.942541ESSEN
72.937FHEYNDERICKX Cindy33BEL1:21:245:04 11.872695BEVEREN-WAAS
73.205FRENS Cathy31BEL1:21:255:04 11.862704HEMIKSEM
74.7492FLAVREYSEN Suzanne26BEL1:21:265:04 11.862706KAPELLE OP DE BOS
75.10029FVAES Lena16BEL1:21:295:04 11.852717WIJNEGEM
76.5956FVERBEKEN Hilde34BEL1:21:335:04 11.842733AALST
77.3833FVAN DEN BERGH Annelies24BEL1:21:345:05 11.842744HEVERLEE
78.8978FBLOCKX Bert25BEL1:21:385:05 11.832775SCHERPENHEUVEL
79.4895FHEYLEN Annelies23BEL1:21:435:05 11.822796HEIST-OP-DEN-BERG
80.3323FSTROOBANT Philippine27BEL1:21:565:06 11.792855BRUXELLES 1
81.2056FMUES Marijke33BEL1:22:215:07 11.732972LANDEN
82.14864FHEULOT Anouck10BEL1:22:255:08 11.722998
83.9306FVERVOORT Wendy24BEL1:22:395:09 11.693058BERCHEM (ANTWERPEN)
84.4757FVAN LANDSCHOOT Isabel31BEL1:22:435:09 11.683089BOOM
85.14904FJAGER Arjan28BEL1:22:475:09 11.673107
86.11356FANA MARIA ARCILA AGUDELO Ana Maria25BEL1:22:475:09 11.673108ANTWERPEN
87.411FCOHEN Sophie25NLD1:22:475:09 11.673111AMSTERDAM
88.379FKWIK Floor25NLD1:22:475:09 11.673112DRIEBERGEN
89.4097FVANDENLINDENLOOF Margot14BEL1:22:505:09 11.663121BERCHEM (ANTWERPEN)
90.15299FFAUCONNIER Kristien31BEL1:22:505:09 11.663124
91.9680FCOPPENS Wendy32BEL1:23:005:10 11.643167MARIAKERKE
92.6530FVAN DER DONCKT Carole26BEL1:23:005:10 11.643170KALMTHOUT
93.2397FVAN AELST Ninah25BEL1:23:095:10 11.623198MECHELEN
94.1640FJANS Laurence32BEL1:23:125:11 11.613210BRUSSEL 18
95.18855FVAN KERREBROECK Margriet34BEL1:23:155:11 11.603231GENT
96.2351FNEYRINCK Elke30BEL1:23:205:11 11.593249HAMME
97.469FDE BOCK Katrien30BEL1:23:305:12 11.573301KEMZEKE
98.15099FGUEDDAH Bouchra10BEL1:23:305:12 11.573302
99.7352FNI DHUIBHIR Roisin33BEL1:23:335:12 11.563313BRUSSELS
100.4884FVANSWEEVELT Ilse34BEL1:23:395:12 11.553336DESSEL
101.1512FVAN REETH Linde23BEL1:23:405:12 11.543338MECHELEN
102.18839FGEYPEN Sofie10BEL1:23:415:12 11.543353ANTWERPEN 1
103.8123FVALCKX Cindy31BEL1:23:455:13 11.533374STABROEK
104.11198FDORTCH Ada31BEL1:23:485:13 11.533393LEUVEN
105.7823FMARTA Montero27SP1:23:505:13 11.523406TORRIJOS
106.3088FVETS Katrijn29BEL1:24:015:14 11.503453ANTWERPEN
107.7265FVANZAVELBERG Sanne27BEL1:24:065:14 11.483477MEERBEEK
108.1326FMEIJSEN Esther34BEL1:24:105:14 11.473489HASSELT
109.11723FKINABLE Els21NLD1:24:125:14 11.473503ROTTERDAM
110.15235FFIZSLEWICS Karen31BEL1:24:155:15 11.463520
111.3799FDESENFANS Michelle28BEL1:24:195:15 11.453542WILRIJK
112.5599FBUYENS Mieke34BEL1:24:295:15 11.433584KASTERLEE
113.203FDEVALCKENEER Ann17BEL1:24:355:16 11.423615KALMTHOUT
114.3724FBLOMMAERT Katrien26BEL1:24:375:16 11.413627MECHELEN
115.9150FBEIRINCKX Annick30BEL1:24:405:16 11.413644LIER
116.2579FMAECKELBERGH Eva33BEL1:24:465:16 11.393670BORGERHOUT (ANTWERPEN)
117.3998FDE BACKERE Christina25BEL1:24:465:16 11.393672ANTWERPEN 1
118.12018FLAERMANS Wendy32BEL1:24:475:17 11.393678SCHILDE
119.15399FMESSNER Stefanie27BEL1:25:015:17 11.363771
120.9271FVANOPSTAL Jana22BEL1:25:095:18 11.343814GEEL
121.13628FGYSEN Kelly30BEL1:25:095:18 11.343816KAPELLEN (ANTW.)
122.1760FVERHASSELT Lore25BEL1:25:125:18 11.333829OOSTEEKLO
123.1562FRUYS Lore28BEL1:25:135:18 11.333830WILRIJK
124.5374FPORTEMAN Barbara30BEL1:25:145:18 11.333834ANTWERPEN
125.2870FMINDERHOUD Janna23NLD1:25:175:18 11.323857VOORSCHOTEN
126.3505FMERTENS Ann24BEL1:25:265:19 11.303913OELEGEM
127.13722FVAN HEES Ellen28BEL1:25:355:20 11.283957EKEREN
128.18166FDEWITTE Virginie32BEL1:25:405:20 11.273984WEVELGEM
129.1365FVAN BEURDEN Tess20BEL1:25:415:20 11.273987KAPELLEN
130.2894FDE MEESTER Sjiva27BEL1:25:445:20 11.274003GENT
131.14123FVAN ELSACKER Yoni26BEL1:25:535:21 11.254062DUFFEL
132.3619FVAN WOLVELAER Karen32BEL1:25:545:21 11.244065SINAAI
133.14596FLEPLAE Ilse33BEL1:25:565:21 11.244079SINT-TRUIDEN
134.14314FVAN VAERENENWYCK Ilse28BEL1:25:575:21 11.244081MELSELE
135.10979FBROSENS Katleen27BEL1:26:065:21 11.224126RIJKEVORSEL
136.1515FDURE Lente17BEL1:26:075:21 11.224137MORTSEL
137.13189FGETH Karen30BEL1:26:085:22 11.214145WILRIJK (ANTWERPEN)
138.7969FTYTECA Eva22BEL1:26:155:22 11.204188DILBEEK
139.3011FMARISSENS Annelies25RSA1:26:175:22 11.194197BERCHEM
140.5756FGEYSKENS Janne17BEL1:26:225:22 11.184226DEURNE (ANTWERPEN)
141.4492FSCHOOFS Leentje27BEL1:26:235:23 11.184239VILVOORDE
142.4593FDE WILDE Brenda27BEL1:26:245:23 11.184240SINT-NIKLAAS
143.8413FBRASPENNING Moniek25BEL1:26:275:23 11.174259BORGERHOUT
144.10802FMALEVE Elissa23BEL1:26:295:23 11.174273TIENEN
145.14139FDELTOUR Pauline21BEL1:26:355:23 11.154318
146.18841FHINDRYCKX Hilde34BEL1:26:375:23 11.154328
147.494FDUJARDIN Anke30BEL1:26:385:23 11.154333SCHAARBEEK
148.16740FKRINSEN Cynthia26BEL1:26:385:23 11.154334
149.11048FOORTS Nathalie33BEL1:26:425:24 11.144355HALLE (KEMPEN)
150.11584FMEERHOFF Kim27BEL1:26:475:24 11.134384MERELBEKE
151.5678FEECKHOUDT Karolien26BEL1:26:505:24 11.124402HOLSBEEK
152.2807FGERNAEY Tine27BEL1:26:515:24 11.124406GENT
153.12429FPLAETINCK Silke29BEL1:26:545:24 11.114417MASSEMEN
154.10041FBIJTELAAR Marike33NLD1:26:585:25 11.104449HULSHORST
155.19579FVAN MENESTEL Sien13BEL1:27:035:25 11.104469EKEREN
156.9758FCOPPENS Greet27BEL1:27:045:25 11.094481HEVERLEE
157.8436FMAES Griet33BEL1:27:115:25 11.084519GEEL
158.3127FOHM Rosalie31NLD1:27:145:26 11.074544ROTTERDAM
159.11537FVAN HELDEN Christine14BEL1:27:225:26 11.054603ANTWERPEN
160.15122FCYUNTHIA Max19BEL1:27:235:26 11.054610
161.5249FLEFEVRE Kim26BEL1:27:275:26 11.044628HOBOKEN
162.3519FSTERKENS Dorien26BEL1:27:315:27 11.044663KESSEL LO
163.5980FVAN BALLAER Inne26BEL1:27:315:27 11.044665OLEN
164.6882FBLEYEN Isabel34BEL1:27:325:27 11.034671ANTWERPEN
165.7436FVENSTERMANS Tine23BEL1:27:335:27 11.034675WEERDE
166.1761FLEYSEN Katrien26BEL1:27:355:27 11.034687ANTWERPEN
167.14200FROMBAUT Nathalie26BEL1:27:385:27 11.024703GENT
168.10571FWOUTERS Lies34BEL1:27:465:28 11.004756ANTWERPEN 1
169.1747FMATSUNO Shuji29BEL1:27:475:28 11.004761AUDERGHEM
170.16714FROOSENS Karen27BEL1:27:495:28 11.004774
171.4935FVOS Ine25BEL1:27:525:28 10.994790BERCHEM
172.10085FRYCKAERT Mariska27BEL1:27:535:28 10.994800ANTWERPEN
173.4042FBORGERS Heleen25BEL1:27:565:28 10.984816KESSEL-LO
174.4288FMEEUS Kristin29BEL1:27:585:28 10.984827BROECHEM
175.3997FDE ROECK Sara22BEL1:28:015:29 10.974842BAZEL
176.16360FHAESEMDOMCKS Sofie21BEL1:28:035:29 10.974852
177.3970FVAN HELMOND Karlijn34NLD1:28:055:29 10.974863RIJEN
178.4518FCAMBRE Liesbeth32BEL1:28:065:29 10.964875TURNHOUT
179.1653FPEETERS Vanessa34BEL1:28:065:29 10.964876GRIMBERGEN
180.18552FVAN EESVELDE Dagmar34BEL1:28:065:29 10.964879ERTVELDE
181.19651FVAN LEUVENHAEGE Sarah30BEL1:28:065:29 10.964880
182.18632FJOURET Nathalie20BEL1:28:095:29 10.964898SINT-GILLIS-WAAS
183.19576FDE DYCKER Stephanie26BEL1:28:095:29 10.964902STEKENE
184.19497FCOSTERMANS Nathalie26BEL1:28:125:29 10.954920BRASSCHAAT
185.18833FVERMEESCH Sofie28BEL1:28:135:29 10.954924ZWIJNAARDE
186.7928FMINJAUW Elisabeth33BEL1:28:145:29 10.954933ELSENE
187.9381FVERMONDEN Annelies23BEL1:28:155:29 10.944940OOSTMALLE
188.8603FTRUYEN Hanne26BEL1:28:175:30 10.944947PULDERBOS
189.13637FJACOBS Marijke32BEL1:28:195:30 10.944960STABROEK
190.19871FVAN NOTEN Sophie27BEL1:28:225:30 10.934979
191.13075FROMAN Dina28BEL1:28:245:30 10.934990ZONHOVEN
192.6874FPLAETINCK Ineke27BEL1:28:285:30 10.925014KALKEN
193.9463FWATERSCHOOT Mieke23BEL1:28:325:30 10.915044SINAAI-WAAS
194.5412FCOPPENS Anneleen27BEL1:28:335:31 10.915055AALST
195.5149FLITZROTH Amber29BEL1:28:375:31 10.905077DEURNE
196.12788FVERBEIREN Katrien30BEL1:28:385:31 10.905081TEMSE
197.16270FVANHOUTTE Dries12BEL1:28:395:31 10.895091MERKSEM (ANTWERPEN)
DNF: abandon; DSQ: disqualifié; Vitesse en km/h
ChronoRace - Electronic Timing - www.chronorace.be